Overview Statistics Trail Chart Weather Telemetry Raw packets
 

This is the latest recevied weather packets stored in our database for station/object 4S6DRJ-13. If no packets are shown the sender has not sent any weather packets the latest 10 day(s).

<< 466 467 468 469 470 471 472 >>
Time Temp. Humidity Pressure Rain* Wind** Luminosity Snow
1787744097 28.89° C 81% 1008.8 hPa 0 mm 0.89 m/s, 228° 83 W/m² -
1787744036 28.89° C 81% 1008.7 hPa 0 mm 2.24 m/s, 272° 83 W/m² -
1787743975 28.89° C 81% 1008.8 hPa 0 mm 1.79 m/s, 232° 85 W/m² -
1787743914 28.89° C 81% 1008.9 hPa 0 mm 1.79 m/s, 284° 91 W/m² -
1787743853 28.89° C 81% 1008.5 hPa 0 mm 1.79 m/s, 238° 99 W/m² -
1787743792 28.89° C 81% 1008.6 hPa 0 mm 2.24 m/s, 222° 102 W/m² -
1787743731 28.89° C 81% 1008.5 hPa 0 mm 1.34 m/s, 277° 103 W/m² -
1787743670 28.89° C 82% 1008.8 hPa 0 mm 0.89 m/s, 216° 107 W/m² -
1787743609 28.89° C 81% 1008.7 hPa 0 mm 0.89 m/s, 265° 118 W/m² -
1787743548 28.89° C 81% 1008.7 hPa 0 mm 1.34 m/s, 238° 121 W/m² -
1787743487 28.89° C 81% 1008.6 hPa 0 mm 1.34 m/s, 284° 122 W/m² -
1787743426 28.89° C 81% 1008.4 hPa 0 mm 1.34 m/s, 206° 122 W/m² -
1787743365 28.89° C 81% 1008.5 hPa 0 mm 2.68 m/s, 245° 117 W/m² -
1787743304 28.89° C 81% 1008.7 hPa 0 mm 1.79 m/s, 166° 114 W/m² -
1787743243 28.89° C 80% 1008.6 hPa 0 mm 1.34 m/s, 239° 100 W/m² -
1787743182 28.89° C 80% 1008.5 hPa 0 mm 2.24 m/s, 212° 78 W/m² -
1787743121 28.89° C 80% 1008.6 hPa 0 mm 1.79 m/s, 232° 52 W/m² -
1787743059 28.89° C 80% 1008.6 hPa 0 mm 0.89 m/s, 149° 56 W/m² -
1787742999 28.89° C 80% 1008.6 hPa 0 mm 0.89 m/s, 210° 71 W/m² -
1787742938 28.89° C 80% 1008.6 hPa 0 mm 2.24 m/s, 353° 93 W/m² -
1787742877 28.89° C 79% 1008.4 hPa 0 mm 1.79 m/s, 261° 115 W/m² -
1787742815 28.89° C 80% 1008.5 hPa 0 mm 0.89 m/s, 219° 130 W/m² -
1787742755 28.89° C 80% 1008.6 hPa 0 mm 1.34 m/s, 199° 147 W/m² -
1787742694 28.89° C 80% 1008.7 hPa 0 mm 2.24 m/s, 232° 156 W/m² -
1787742633 28.89° C 80% 1008.4 hPa 0 mm 1.79 m/s, 182° 160 W/m² -

* Rain latest hour (hover to see other rain measurements)
** Current wind speed in m/s (hover to see current wind gust speed)